Skip Page Navigation
NASA JPL Caltech
NASA Logo - Jet Propulsion Laboratory + View the NASA Portal
+ Center for Near-Earth Object Studies
JPL Home Earth Solar System Stars & Galaxies Technology
JPL Solar System Dynamics
BODIES ORBITS EPHEMERIDES TOOLS PHYSICAL DATA DISCOVERY FAQ SITE MAP

Significant website upgrade scheduled for September 27. More details available here.

JPL Small-Body Database Browser
Search: [ help ]  
392435 (2010 RV56)
Classification: Main-belt Asteroid          SPK-ID: 2392435
Ephemeris | Orbit Diagram | Orbital Elements | Mission Design | Physical Parameters | Discovery Circumstances | Close-Approach Data ]

[ show orbit diagram ]
Orbital Elements at Epoch 2459396.5 (2021-Jul-01.0) TDB
Reference: JPL 16 (heliocentric ecliptic J2000)
 Element Value Uncertainty (1-sigma)   Units 
e .2166810496681239 5.0194e-08  
a 3.125974821192576 3.2708e-08 au
q 2.448635315700443 1.6682e-07 au
i 5.676359723528711 8.6922e-06 deg
node 217.5815727679266 5.0812e-05 deg
peri 62.18343201251194 5.6803e-05 deg
M 35.42476710596719 2.1093e-05 deg
tp 2459197.853396768893
(2020-Dec-14.35339677)
0.00011741 TDB
period 2018.722577604538
5.53
3.1683e-05
8.674e-08
d
yr
n .1783305957905242 2.7989e-09 deg/d
Q 3.803314326684709 3.9795e-08 au
  Orbit Determination Parameters
   # obs. used (total)      212  
   data-arc span      6257 days (17.13 yr)  
   first obs. used      2004-06-19  
   last obs. used      2021-08-06  
   planetary ephem.      DE441  
   SB-pert. ephem.      SB441-N16  
   condition code      0  
   norm. resid. RMS      .55469  
   source      ORB  
   producer      Otto Matic  
   solution date      2021-Aug-25 04:41:34  

Additional Information
 Earth MOID = 1.43856 au 
 Jupiter MOID = 1.37653 au 
 T_jup = 3.170 
[ show covariance matrix ]

Ephemeris | Orbit Diagram | Orbital Elements | Mission Design | Physical Parameters | Discovery Circumstances | Close-Approach Data ]

Physical Parameter Table
Parameter Symbol Value Units Sigma Reference Notes
absolute magnitude H 16.68   n/a MPO639080  

392435 (2010 RV56)          Discovered 2005-Oct-24 by Spacewatch at Kitt Peak
Reference: Last Updated: 2014-04-17

[ hide close-approach data ]
Close-Approach Data   ...sorted by Date/Time (TDB)
Date/Time (TDB) Time Uncertainty
(days_HH:MM)
Body Nominal Distance (au) Minimum Distance (au) Maximum Distance (au) V-relative (km/s) V-infinity (km/s) JD (TDB) Time Uncertainty (minutes) Semi-major axis (km) Semi-minor axis (km) range-LOV angle (deg) N-sigma BP Orbit Ref. Reference Modified
1907-May-20 05:15 00:06 Jupiter 1.57502210121216 1.57501796721657 1.57502623535591 1.2041526007468 0.611894139298169 2417715.719049877 6.37158799977926 2883.50850654544 484.565985339161 -66.6872156935656 3084864.68237355 T 16 CATAB v2.0g-lin.ifort 2021-Aug-25 04:41:35 2021-Aug-25 04:41
1917-Aug-26 17:14 00:05 Jupiter 1.42185651452242 1.4218540562607 1.42185897279213 1.79285477423768 1.42228565083757 2421467.217743547 5.29232278171223 420.479388167553 167.700663094001 -81.4414305358848 516609.50475352 T 16 CATAB v2.0g-lin.ifort 2021-Aug-25 04:41:35 2021-Aug-25 04:41
1990-Aug-03 21:28 00:02 Jupiter 1.60070955509318 1.60070807760234 1.60071103290476 1.09731364169755 0.381822497499176 2448107.394426056 1.82638120002636 5794.5108085416 961.048443868332 -40.9585960940422 4566614.30708269 T 16 CATAB v2.0g-lin.ifort 2021-Aug-25 04:41:35 2021-Aug-25 04:41
2000-Nov-04 07:06 00:01 Jupiter 1.41186102056943 1.41185993863687 1.41186210250063 1.72374186374465 1.33094677345929 2451852.795507718 1.03514920459453 381.787101675223 73.4160707928987 -59.4916994335522 1262605.49696842 T 16 CATAB v2.0g-lin.ifort 2021-Aug-25 04:41:35 2021-Aug-25 04:41
2011-Jan-20 00:18 < 00:01 Jupiter 1.98181335088844 1.98181239495383 1.98181430682293 3.62060890046517 3.50057329113403 2455581.512607395 0.444483047006555 49.7695920394836 36.2072985743801 -76.1140417815647 1449451.50611646 T 16 CATAB v2.0g-lin.ifort 2021-Aug-25 04:41:35 2021-Aug-25 04:41
2073-Oct-14 20:14 00:03 Jupiter 1.63352059782008 1.63351861356254 1.63352258495556 1.04067371461342 0.214360113461303 2478495.343185124 2.96791614077948 36280.3325888649 2448.00059410601 -21.0808821599467 4451428.21617702 T 16 CATAB v2.0g-lin.ifort 2021-Aug-25 04:41:35 2021-Aug-25 04:41
2084-Jan-08 17:22 00:03 Jupiter 1.41586573072842 1.41586446174695 1.41586699970603 1.6503664472459 1.23581409529372 2482233.223822804 3.35883529733081 470.788808229116 196.423336469299 -63.2795978904739 707325.884231306 T 16 CATAB v2.0g-lin.ifort 2021-Aug-25 04:41:35 2021-Aug-25 04:41
2094-Mar-25 16:13 00:04 Jupiter 1.96149003228195 1.96148689421658 1.96149317035289 3.57824410647137 3.4554563760466 2485962.175917642 4.0236774546308 238.917061231154 37.441693180844 -58.8070252552362 1266703.8897485 T 16 CATAB v2.0g-lin.ifort 2021-Aug-25 04:41:35 2021-Aug-25 04:41
2156-Dec-22 12:41 00:08 Jupiter 1.65386522799266 1.65386051092715 1.65386994516961 1.00789455652631 n/a 2508879.028751457 7.70491984758313 745.943474273436 68.7231128461177 72.3701207722922 3431505.26933687 F 16 CATAB v2.0g-lin.ifort 2021-Aug-25 04:41:35 2021-Aug-25 04:41
2167-Mar-11 11:44 00:08 Jupiter 1.41911032771564 1.41910825468087 1.41911240073257 1.56033006165887 1.1139535614267 2512609.988779462 7.72268607388287 676.720679662155 449.833799892991 -32.3471732099039 361604.749864575 T 16 CATAB v2.0g-lin.ifort 2021-Aug-25 04:41:35 2021-Aug-25 04:41
2177-May-26 14:45 00:08 Jupiter 1.94351713103941 1.94351079656888 1.94352346553889 3.54459281758279 3.41942968930081 2516339.114889764 8.41837547808043 501.282714990605 36.8342839375538 -59.5943009577035 1269451.95716142 T 16 CATAB v2.0g-lin.ifort 2021-Aug-25 04:41:35 2021-Aug-25 04:41

Alternate Designations
 2010 RV56 = 2005 UE165 
Ephemeris | Orbit Diagram | Orbital Elements | Mission Design | Physical Parameters | Discovery Circumstances | Close-Approach Data ]
ABOUT SSD CREDITS/AWARDS PRIVACY/COPYRIGHT GLOSSARY LINKS
FirstGov 2021-Sep-22 12:49 UT
(server date/time)  
NASA Home Page
Site Manager:   Ryan S. Park
Webmaster  Alan B. Chamberlin